| time (UTC) | temp C | wind direction | speed KPH | gust KPH | rain 1hr cm | rain 24hr cm | rain mn cm | humidity % | barometer mb |
| 20260510043410 | 10 | 59 | 3.2 | 9.7 | 0.00 | 0.00 | 0.00 | 85 | 1012.0 |
| 20260510042910 | 10 | 68 | 3.2 | 11.3 | 0.00 | 0.00 | 0.00 | 86 | 1012.0 |
| 20260510041910 | 10 | 53 | 1.6 | 4.8 | 0.00 | 0.00 | 0.00 | 86 | 1012.0 |
| 20260510041411 | 10 | 43 | 3.2 | 4.8 | 0.00 | 0.00 | 0.00 | 86 | 1012.0 |
| 20260510040910 | 10 | 47 | 3.2 | 4.8 | 0.00 | 0.00 | 0.00 | 86 | 1012.0 |
| 20260510040410 | 10 | 26 | 3.2 | 8.0 | 0.00 | 0.00 | 0.00 | 85 | 1012.0 |
| 20260510035910 | 10 | 47 | 1.6 | 8.0 | 0.00 | 0.00 | 0.00 | 85 | 1012.0 |
| 20260510035411 | 10 | 64 | 0.0 | 8.0 | 0.00 | 0.00 | 0.00 | 85 | 1012.0 |
| 20260510034910 | 10 | 22 | 1.6 | 8.0 | 0.00 | 0.00 | 0.00 | 84 | 1012.0 |
| 20260510033410 | 10 | 51 | 1.6 | 11.3 | 0.00 | 0.00 | 0.00 | 84 | 1012.0 |
| 20260510032911 | 10 | 48 | 8.0 | 14.5 | 0.00 | 0.00 | 0.00 | 84 | 1012.0 |
| 20260510032411 | 10 | 56 | 8.0 | 14.5 | 0.00 | 0.00 | 0.00 | 84 | 1011.9 |
| 20260510031411 | 10 | 50 | 3.2 | 11.3 | 0.00 | 0.00 | 0.00 | 84 | 1011.9 |
| 20260510030910 | 10 | 54 | 3.2 | 9.7 | 0.00 | 0.00 | 0.00 | 85 | 1012.0 |
| 20260510030411 | 10 | 31 | 1.6 | 9.7 | 0.00 | 0.00 | 0.00 | 85 | 1012.1 |
| 20260510025411 | 10 | 61 | 1.6 | 4.8 | 0.00 | 0.00 | 0.00 | 85 | 1012.2 |
| 20260510024410 | 10 | 51 | 3.2 | 8.0 | 0.00 | 0.00 | 0.00 | 84 | 1012.4 |
| 20260510022910 | 10 | 31 | 1.6 | 4.8 | 0.00 | 0.00 | 0.00 | 84 | 1012.4 |
| 20260510021910 | 10 | 47 | 1.6 | 3.2 | 0.00 | 0.00 | 0.00 | 83 | 1012.5 |
| 20260510021410 | 11 | 66 | 1.6 | 8.0 | 0.00 | 0.00 | 0.00 | 83 | 1012.5 |
| 20260510020410 | 11 | 46 | 3.2 | 9.7 | 0.00 | 0.00 | 0.00 | 83 | 1012.3 |
| 20260510015910 | 11 | 28 | 1.6 | 8.0 | 0.00 | 0.00 | 0.00 | 83 | 1012.3 |
| 20260510015410 | 11 | 53 | 3.2 | 11.3 | 0.00 | 0.00 | 0.00 | 83 | 1012.3 |
| 20260510014410 | 11 | 46 | 3.2 | 8.0 | 0.00 | 0.00 | 0.00 | 84 | 1012.4 |
| 20260510013910 | 11 | 38 | 3.2 | 4.8 | 0.00 | 0.00 | 0.00 | 84 | 1012.4 |
| 20260510013410 | 10 | 57 | 1.6 | 4.8 | 0.00 | 0.00 | 0.00 | 85 | 1012.5 |
| 20260510012410 | 10 | 49 | 1.6 | 8.0 | 0.00 | 0.00 | 0.00 | 85 | 1012.5 |
| 20260510011909 | 10 | 45 | 3.2 | 4.8 | 0.00 | 0.00 | 0.00 | 85 | 1012.6 |
| 20260510011410 | 10 | 58 | 3.2 | 8.0 | 0.00 | 0.00 | 0.00 | 85 | 1012.7 |
| 20260510010910 | 10 | 54 | 1.6 | 8.0 | 0.00 | 0.00 | 0.00 | 85 | 1012.8 |
| 20260510010410 | 10 | 33 | 1.6 | 4.8 | 0.00 | 0.00 | 0.00 | 85 | 1012.8 |
| 20260510005910 | 10 | 44 | 1.6 | 9.7 | 0.00 | 0.00 | 0.00 | 85 | 1012.8 |
| 20260510005410 | 10 | 62 | 0.0 | 4.8 | 0.00 | 0.00 | 0.00 | 85 | 1012.8 |
| 20260510004910 | 10 | 60 | 3.2 | 8.0 | 0.00 | 0.00 | 0.00 | 85 | 1013.0 |
| 20260510004410 | 10 | 45 | 1.6 | 4.8 | 0.00 | 0.00 | 0.00 | 84 | 1013.0 |
| 20260510003910 | 11 | 42 | 1.6 | 3.2 | 0.00 | 0.00 | 0.00 | 84 | 1013.1 |
| 20260510003410 | 11 | 32 | 0.0 | 1.6 | 0.00 | 0.00 | 0.00 | 83 | 1013.2 |
| 20260510002910 | 11 | 34 | 1.6 | 4.8 | 0.00 | 0.00 | 0.00 | 83 | 1013.2 |
| 20260510002410 | 11 | 59 | 1.6 | 8.0 | 0.00 | 0.00 | 0.00 | 83 | 1013.2 |
| 20260510001911 | 11 | 53 | 1.6 | 8.0 | 0.00 | 0.00 | 0.00 | 82 | 1013.2 |
| 20260510001410 | 11 | 65 | 3.2 | 4.8 | 0.00 | 0.00 | 0.00 | 82 | 1013.2 |
| 20260510000909 | 11 | 63 | 3.2 | 11.3 | 0.00 | 0.00 | 0.00 | 81 | 1013.3 |
| 20260509235409 | 12 | 93 | 0.0 | 11.3 | 0.00 | 0.00 | 0.00 | 80 | 1013.3 |
| 20260509234910 | 12 | 36 | 3.2 | 8.0 | 0.00 | 0.00 | 0.00 | 80 | 1013.3 |
| 20260509234410 | 12 | 66 | 3.2 | 9.7 | 0.00 | 0.00 | 0.00 | 80 | 1013.3 |
| 20260509233910 | 12 | 36 | 1.6 | 4.8 | 0.00 | 0.00 | 0.00 | 80 | 1013.3 |
| 20260509233410 | 12 | 49 | 3.2 | 9.7 | 0.00 | 0.00 | 0.00 | 81 | 1013.3 |
| 20260509232910 | 11 | 38 | 1.6 | 8.0 | 0.00 | 0.00 | 0.00 | 81 | 1013.3 |
| 20260509232409 | 11 | 46 | 3.2 | 11.3 | 0.00 | 0.00 | 0.00 | 81 | 1013.4 |
| 20260509231910 | 11 | 71 | 1.6 | 8.0 | 0.00 | 0.00 | 0.00 | 81 | 1013.4 |
| 20260509231410 | 11 | 46 | 0.0 | 8.0 | 0.00 | 0.00 | 0.00 | 81 | 1013.3 |
| 20260509230910 | 11 | 61 | 1.6 | 4.8 | 0.00 | 0.00 | 0.00 | 81 | 1013.3 |
| 20260509230410 | 11 | 51 | 4.8 | 9.7 | 0.00 | 0.00 | 0.00 | 82 | 1013.3 |
| 20260509225910 | 11 | 48 | 0.0 | 3.2 | 0.00 | 0.00 | 0.00 | 82 | 1013.3 |
| 20260509225410 | 11 | 35 | 1.6 | 9.7 | 0.00 | 0.00 | 0.00 | 82 | 1013.4 |
| 20260509224910 | 11 | 56 | 4.8 | 9.7 | 0.00 | 0.00 | 0.00 | 81 | 1013.4 |
| 20260509224410 | 11 | 50 | 4.8 | 11.3 | 0.00 | 0.00 | 0.00 | 82 | 1013.4 |
| 20260509223409 | 11 | 38 | 3.2 | 11.3 | 0.00 | 0.00 | 0.00 | 82 | 1013.5 |
| 20260509222909 | 11 | 26 | 0.0 | 3.2 | 0.00 | 0.00 | 0.00 | 82 | 1013.5 |
| 20260509222409 | 11 | 59 | 3.2 | 4.8 | 0.00 | 0.00 | 0.00 | 82 | 1013.5 |
| 20260509221410 | 11 | 34 | 3.2 | 11.3 | 0.00 | 0.00 | 0.00 | 83 | 1013.6 |
| 20260509220910 | 11 | 54 | 4.8 | 11.3 | 0.00 | 0.00 | 0.00 | 83 | 1013.6 |
| 20260509220409 | 12 | 53 | 3.2 | 11.3 | 0.00 | 0.00 | 0.00 | 83 | 1013.6 |
| 20260509215909 | 12 | 32 | 1.6 | 4.8 | 0.00 | 0.00 | 0.00 | 82 | 1013.6 |
| 20260509215410 | 12 | 54 | 1.6 | 4.8 | 0.00 | 0.00 | 0.00 | 81 | 1013.6 |
| 20260509214910 | 12 | 11 | 0.0 | 3.2 | 0.00 | 0.00 | 0.00 | 81 | 1013.7 |
| 20260509214410 | 12 | 48 | 1.6 | 4.8 | 0.00 | 0.00 | 0.00 | 81 | 1013.6 |
| 20260509213910 | 12 | 36 | 0.0 | 3.2 | 0.00 | 0.00 | 0.00 | 81 | 1013.5 |
| 20260509212910 | 12 | 44 | 3.2 | 8.0 | 0.00 | 0.00 | 0.00 | 80 | 1013.5 |
| 20260509212410 | 12 | 43 | 1.6 | 8.0 | 0.00 | 0.00 | 0.00 | 80 | 1013.5 |
| 20260509211910 | 12 | 42 | 3.2 | 4.8 | 0.00 | 0.00 | 0.00 | 80 | 1013.6 |
| 20260509211410 | 12 | 62 | 1.6 | 8.0 | 0.00 | 0.00 | 0.00 | 81 | 1013.6 |
| 20260509210910 | 12 | 41 | 3.2 | 12.9 | 0.00 | 0.00 | 0.00 | 80 | 1013.5 |
| 20260509210409 | 12 | 23 | 1.6 | 3.2 | 0.00 | 0.00 | 0.00 | 80 | 1013.5 |
| 20260509205910 | 12 | 68 | 1.6 | 8.0 | 0.00 | 0.00 | 0.00 | 80 | 1013.5 |
| 20260509204914 | 13 | 41 | 1.6 | 4.8 | 0.00 | 0.00 | 0.00 | 79 | 1013.5 |
| 20260509204413 | 13 | 53 | 3.2 | 4.8 | 0.00 | 0.00 | 0.00 | 79 | 1013.6 |
| 20260509203914 | 13 | 46 | 0.0 | 1.6 | 0.00 | 0.00 | 0.00 | 78 | 1013.7 |
| 20260509203413 | 13 | 46 | 0.0 | 3.2 | 0.00 | 0.00 | 0.00 | 76 | 1013.6 |
| 20260509202414 | 13 | 47 | 0.0 | 3.2 | 0.00 | 0.00 | 0.00 | 75 | 1013.7 |
| 20260509201914 | 13 | 54 | 1.6 | 4.8 | 0.00 | 0.00 | 0.00 | 74 | 1013.6 |
| 20260509200913 | 14 | 48 | 3.2 | 4.8 | 0.00 | 0.00 | 0.00 | 71 | 1013.5 |
| 20260509200414 | 15 | 48 | 3.2 | 4.8 | 0.00 | 0.00 | 0.00 | 70 | 1013.5 |
| 20260509195910 | 15 | 67 | 3.2 | 4.8 | 0.00 | 0.00 | 0.00 | 70 | 1013.4 |
| 20260509194910 | 15 | 50 | 1.6 | 4.8 | 0.00 | 0.00 | 0.00 | 68 | 1013.5 |
| 20260509193909 | 16 | 63 | 3.2 | 4.8 | 0.00 | 0.00 | 0.00 | 66 | 1013.4 |
| 20260509193410 | 16 | 44 | 3.2 | 8.0 | 0.00 | 0.00 | 0.00 | 66 | 1013.4 |
| 20260509192910 | 16 | 54 | 3.2 | 4.8 | 0.00 | 0.00 | 0.00 | 65 | 1013.3 |
| 20260509192409 | 16 | 32 | 1.6 | 4.8 | 0.00 | 0.00 | 0.00 | 64 | 1013.3 |
| 20260509191910 | 16 | 55 | 3.2 | 4.8 | 0.00 | 0.00 | 0.00 | 63 | 1013.3 |
| 20260509191410 | 16 | 59 | 3.2 | 4.8 | 0.00 | 0.00 | 0.00 | 63 | 1013.3 |
| 20260509190910 | 17 | 42 | 1.6 | 4.8 | 0.00 | 0.00 | 0.00 | 62 | 1013.3 |
| 20260509190410 | 17 | 53 | 1.6 | 4.8 | 0.00 | 0.00 | 0.00 | 61 | 1013.2 |
| 20260509185909 | 17 | 39 | 4.8 | 8.0 | 0.00 | 0.00 | 0.00 | 60 | 1013.2 |
| 20260509185410 | 17 | 36 | 3.2 | 4.8 | 0.00 | 0.00 | 0.00 | 61 | 1013.2 |
| 20260509184909 | 17 | 65 | 3.2 | 11.3 | 0.00 | 0.00 | 0.00 | 59 | 1013.1 |
| 20260509184410 | 17 | 52 | 1.6 | 11.3 | 0.00 | 0.00 | 0.00 | 58 | 1013.1 |
| 20260509183910 | 18 | 48 | 3.2 | 11.3 | 0.00 | 0.00 | 0.00 | 58 | 1013.1 |
| 20260509183410 | 18 | 65 | 3.2 | 4.8 | 0.00 | 0.00 | 0.00 | 58 | 1013.1 |
| 20260509182910 | 18 | 48 | 0.0 | 4.8 | 0.00 | 0.00 | 0.00 | 59 | 1013.1 |
| 20260509182409 | 18 | 59 | 1.6 | 4.8 | 0.00 | 0.00 | 0.00 | 56 | 1013.1 |
| 20260509181910 | 18 | 48 | 1.6 | 8.0 | 0.00 | 0.00 | 0.00 | 57 | 1013.1 |
| 20260509181410 | 18 | 42 | 1.6 | 8.0 | 0.00 | 0.00 | 0.00 | 57 | 1013.1 |
| 20260509175910 | 19 | 53 | 3.2 | 9.7 | 0.00 | 0.00 | 0.00 | 55 | 1013.0 |
| 20260509174910 | 20 | 54 | 3.2 | 14.5 | 0.00 | 0.00 | 0.00 | 54 | 1012.9 |
| 20260509174410 | 20 | 52 | 4.8 | 11.3 | 0.00 | 0.00 | 0.00 | 56 | 1013.0 |
| 20260509173909 | 20 | 65 | 1.6 | 4.8 | 0.00 | 0.00 | 0.00 | 56 | 1013.0 |
| 20260509173410 | 20 | 44 | 1.6 | 12.9 | 0.00 | 0.00 | 0.00 | 54 | 1013.0 |
| 20260509172910 | 20 | 51 | 3.2 | 12.9 | 0.00 | 0.00 | 0.00 | 54 | 1013.1 |
| 20260509172409 | 20 | 43 | 4.8 | 14.5 | 0.00 | 0.00 | 0.00 | 51 | 1013.1 |
| 20260509171909 | 21 | 35 | 1.6 | 12.9 | 0.00 | 0.00 | 0.00 | 53 | 1013.1 |
| 20260509171410 | 21 | 57 | 4.8 | 12.9 | 0.00 | 0.00 | 0.00 | 56 | 1013.0 |
| 20260509170910 | 21 | 49 | 0.0 | 4.8 | 0.00 | 0.00 | 0.00 | 56 | 1012.9 |
| 20260509170409 | 21 | 43 | 4.8 | 11.3 | 0.00 | 0.00 | 0.00 | 53 | 1012.9 |
| 20260509165910 | 21 | 49 | 4.8 | 14.5 | 0.00 | 0.00 | 0.00 | 52 | 1012.9 |
| 20260509165410 | 21 | 45 | 3.2 | 4.8 | 0.00 | 0.00 | 0.00 | 54 | 1013.0 |
| 20260509164909 | 21 | 18 | 4.8 | 14.5 | 0.00 | 0.00 | 0.00 | 56 | 1013.0 |
| 20260509164410 | 21 | 55 | 1.6 | 12.9 | 0.00 | 0.00 | 0.00 | 55 | 1013.0 |
| 20260509163910 | 21 | 55 | 3.2 | 12.9 | 0.00 | 0.00 | 0.00 | 56 | 1013.0 |
| 20260509162910 | 21 | 53 | 8.0 | 12.9 | 0.00 | 0.00 | 0.00 | 53 | 1013.0 |
| 20260509162409 | 21 | 25 | 1.6 | 11.3 | 0.00 | 0.00 | 0.00 | 53 | 1012.9 |
| 20260509161910 | 21 | 46 | 4.8 | 16.1 | 0.00 | 0.00 | 0.00 | 52 | 1012.9 |
| 20260509161410 | 21 | 44 | 6.4 | 14.5 | 0.00 | 0.00 | 0.00 | 53 | 1012.9 |
| 20260509160909 | 22 | 64 | 3.2 | 8.0 | 0.00 | 0.00 | 0.00 | 56 | 1012.9 |
| 20260509155909 | 22 | 20 | 4.8 | 12.9 | 0.00 | 0.00 | 0.00 | 54 | 1012.9 |
| 20260509155410 | 22 | 47 | 3.2 | 14.5 | 0.00 | 0.00 | 0.00 | 53 | 1012.9 |
| 20260509154409 | 22 | 38 | 4.8 | 19.3 | 0.00 | 0.00 | 0.00 | 52 | 1013.0 |
| 20260509153910 | 22 | 62 | 3.2 | 12.9 | 0.00 | 0.00 | 0.00 | 52 | 1013.0 |
| 20260509153409 | 22 | 25 | 1.6 | 11.3 | 0.00 | 0.00 | 0.00 | 56 | 1013.0 |
| 20260509152909 | 22 | 27 | 4.8 | 14.5 | 0.00 | 0.00 | 0.00 | 54 | 1013.0 |
| 20260509152409 | 22 | 38 | 4.8 | 14.5 | 0.00 | 0.00 | 0.00 | 52 | 1013.1 |
| 20260509151410 | 22 | 41 | 4.8 | 14.5 | 0.00 | 0.00 | 0.00 | 55 | 1013.1 |
| 20260509150909 | 21 | 38 | 3.2 | 12.9 | 0.00 | 0.00 | 0.00 | 53 | 1013.2 |
| 20260509150410 | 22 | 66 | 4.8 | 14.5 | 0.00 | 0.00 | 0.00 | 51 | 1013.3 |
| 20260509145909 | 21 | 52 | 3.2 | 8.0 | 0.00 | 0.00 | 0.00 | 57 | 1013.2 |
| 20260509145409 | 21 | 12 | 4.8 | 12.9 | 0.00 | 0.00 | 0.00 | 53 | 1013.3 |
| 20260509144410 | 21 | 51 | 4.8 | 19.3 | 0.00 | 0.00 | 0.00 | 52 | 1013.4 |
| 20260509143910 | 22 | 44 | 8.0 | 19.3 | 0.00 | 0.00 | 0.00 | 49 | 1013.4 |
| 20260509143410 | 22 | 53 | 8.0 | 12.9 | 0.00 | 0.00 | 0.00 | 53 | 1013.4 |
| 20260509142910 | 22 | 68 | 1.6 | 8.0 | 0.00 | 0.00 | 0.00 | 57 | 1013.5 |
| 20260509142409 | 22 | 74 | 3.2 | 14.5 | 0.00 | 0.00 | 0.00 | 53 | 1013.5 |
| 20260509141909 | 22 | 25 | 4.8 | 12.9 | 0.00 | 0.00 | 0.00 | 50 | 1013.5 |
| 20260509141409 | 22 | 46 | 8.0 | 14.5 | 0.00 | 0.00 | 0.00 | 50 | 1013.5 |
| 20260509140910 | 22 | 59 | 4.8 | 12.9 | 0.00 | 0.00 | 0.00 | 58 | 1013.6 |
| 20260509140410 | 22 | 45 | 4.8 | 11.3 | 0.00 | 0.00 | 0.00 | 53 | 1013.7 |
| 20260509135909 | 22 | 41 | 3.2 | 8.0 | 0.00 | 0.00 | 0.00 | 54 | 1013.7 |
| 20260509135409 | 21 | 63 | 4.8 | 11.3 | 0.00 | 0.00 | 0.00 | 53 | 1013.7 |
| 20260509134910 | 21 | 51 | 1.6 | 8.0 | 0.00 | 0.00 | 0.00 | 56 | 1013.8 |
| 20260509134410 | 21 | 49 | 8.0 | 14.5 | 0.00 | 0.00 | 0.00 | 54 | 1013.8 |
| 20260509133910 | 21 | 79 | 3.2 | 16.1 | 0.00 | 0.00 | 0.00 | 57 | 1013.9 |
| 20260509132910 | 21 | 35 | 4.8 | 11.3 | 0.00 | 0.00 | 0.00 | 57 | 1014.1 |
| 20260509132409 | 21 | 58 | 3.2 | 14.5 | 0.00 | 0.00 | 0.00 | 54 | 1014.2 |
| 20260509131909 | 21 | 57 | 6.4 | 16.1 | 0.00 | 0.00 | 0.00 | 53 | 1014.2 |
| 20260509131410 | 21 | 63 | 8.0 | 14.5 | 0.00 | 0.00 | 0.00 | 53 | 1014.2 |
| 20260509130909 | 21 | 54 | 3.2 | 11.3 | 0.00 | 0.00 | 0.00 | 55 | 1014.1 |
| 20260509130410 | 21 | 300 | 3.2 | 8.0 | 0.00 | 0.00 | 0.00 | 61 | 1014.1 |
| 20260509125910 | 21 | 106 | 1.6 | 3.2 | 0.00 | 0.00 | 0.00 | 61 | 1014.2 |
| 20260509125410 | 21 | 62 | 1.6 | 4.8 | 0.00 | 0.00 | 0.00 | 54 | 1014.2 |
| 20260509124909 | 21 | 36 | 3.2 | 9.7 | 0.00 | 0.00 | 0.00 | 55 | 1014.3 |
| 20260509124410 | 21 | 46 | 3.2 | 11.3 | 0.00 | 0.00 | 0.00 | 54 | 1014.3 |
| 20260509123910 | 21 | 41 | 3.2 | 14.5 | 0.00 | 0.00 | 0.00 | 52 | 1014.3 |
| 20260509123409 | 21 | 30 | 1.6 | 12.9 | 0.00 | 0.00 | 0.00 | 52 | 1014.3 |
| 20260509122909 | 21 | 76 | 1.6 | 3.2 | 0.00 | 0.00 | 0.00 | 61 | 1014.4 |
| 20260509122410 | 21 | 117 | 3.2 | 8.0 | 0.00 | 0.00 | 0.00 | 54 | 1014.5 |
| 20260509121909 | 21 | 72 | 6.4 | 12.9 | 0.00 | 0.00 | 0.00 | 54 | 1014.6 |
| 20260509121410 | 21 | 54 | 4.8 | 11.3 | 0.00 | 0.00 | 0.00 | 54 | 1014.7 |
| 20260509120410 | 21 | 44 | 11.3 | 20.9 | 0.00 | 0.00 | 0.00 | 53 | 1014.7 |
| 20260509115410 | 21 | 45 | 1.6 | 8.0 | 0.00 | 0.00 | 0.00 | 54 | 1014.9 |
| 20260509114910 | 21 | 43 | 4.8 | 16.1 | 0.00 | 0.00 | 0.00 | 54 | 1014.9 |
| 20260509114409 | 22 | 47 | 8.0 | 14.5 | 0.00 | 0.00 | 0.00 | 55 | 1015.0 |
| 20260509113909 | 22 | 46 | 8.0 | 14.5 | 0.00 | 0.00 | 0.00 | 53 | 1015.1 |
| 20260509113410 | 22 | 105 | 3.2 | 8.0 | 0.00 | 0.00 | 0.00 | 51 | 1015.1 |
| 20260509112910 | 22 | 184 | 3.2 | 14.5 | 0.00 | 0.00 | 0.00 | 54 | 1015.2 |
| 20260509112410 | 21 | 101 | 4.8 | 11.3 | 0.00 | 0.00 | 0.00 | 55 | 1015.2 |
| 20260509111909 | 21 | 139 | 3.2 | 8.0 | 0.00 | 0.00 | 0.00 | 51 | 1015.2 |
| 20260509111409 | 21 | 328 | 3.2 | 11.3 | 0.00 | 0.00 | 0.00 | 52 | 1015.2 |
| 20260509110909 | 21 | 124 | 4.8 | 11.3 | 0.00 | 0.00 | 0.00 | 49 | 1015.2 |
| 20260509105910 | 21 | 104 | 8.0 | 14.5 | 0.00 | 0.00 | 0.00 | 54 | 1015.4 |
| 20260509104910 | 21 | 199 | 3.2 | 12.9 | 0.00 | 0.00 | 0.00 | 51 | 1015.5 |
| 20260509103410 | 20 | 175 | 6.4 | 14.5 | 0.00 | 0.00 | 0.00 | 54 | 1015.5 |
| 20260509102410 | 20 | 63 | 1.6 | 12.9 | 0.00 | 0.00 | 0.00 | 61 | 1015.5 |
| 20260509101910 | 20 | 44 | 6.4 | 16.1 | 0.00 | 0.00 | 0.00 | 60 | 1015.6 |
| 20260509101409 | 20 | 71 | 8.0 | 20.9 | 0.00 | 0.00 | 0.00 | 61 | 1015.6 |
| 20260509100909 | 20 | 72 | 1.6 | 9.7 | 0.00 | 0.00 | 0.00 | 57 | 1015.6 |
| 20260509100409 | 20 | 50 | 4.8 | 14.5 | 0.00 | 0.00 | 0.00 | 60 | 1015.7 |
| 20260509095409 | 20 | 55 | 1.6 | 11.3 | 0.00 | 0.00 | 0.00 | 58 | 1015.8 |
| 20260509094909 | 20 | 54 | 1.6 | 12.9 | 0.00 | 0.00 | 0.00 | 59 | 1015.8 |
| 20260509093909 | 20 | 56 | 8.0 | 14.5 | 0.00 | 0.00 | 0.00 | 60 | 1015.8 |
| 20260509093410 | 19 | 49 | 4.8 | 14.5 | 0.00 | 0.00 | 0.00 | 64 | 1015.8 |
| 20260509092910 | 19 | 102 | 6.4 | 12.9 | 0.00 | 0.00 | 0.00 | 65 | 1015.9 |
| 20260509092409 | 19 | 86 | 1.6 | 12.9 | 0.00 | 0.00 | 0.00 | 60 | 1015.9 |
| 20260509091409 | 18 | 51 | 6.4 | 14.5 | 0.00 | 0.00 | 0.00 | 64 | 1015.9 |
| 20260509090910 | 18 | 53 | 4.8 | 9.7 | 0.00 | 0.00 | 0.00 | 65 | 1015.9 |
| 20260509090410 | 18 | 57 | 4.8 | 14.5 | 0.00 | 0.00 | 0.00 | 65 | 1015.8 |
| 20260509084910 | 18 | 53 | 4.8 | 16.1 | 0.00 | 0.00 | 0.00 | 70 | 1015.9 |
| 20260509084409 | 17 | 74 | 4.8 | 9.7 | 0.00 | 0.00 | 0.00 | 69 | 1015.8 |
| 20260509083409 | 17 | 59 | 1.6 | 8.0 | 0.00 | 0.00 | 0.00 | 69 | 1016.0 |
| 20260509082909 | 17 | 66 | 4.8 | 11.3 | 0.00 | 0.00 | 0.00 | 70 | 1016.0 |
| 20260509082410 | 17 | 57 | 6.4 | 11.3 | 0.00 | 0.00 | 0.00 | 72 | 1016.0 |
| 20260509081909 | 16 | 78 | 6.4 | 11.3 | 0.00 | 0.00 | 0.00 | 72 | 1016.0 |
| 20260509081409 | 16 | 52 | 4.8 | 12.9 | 0.00 | 0.00 | 0.00 | 73 | 1016.1 |
| 20260509080910 | 16 | 44 | 3.2 | 8.0 | 0.00 | 0.00 | 0.00 | 73 | 1016.1 |
| 20260509080409 | 16 | 109 | 4.8 | 12.9 | 0.00 | 0.00 | 0.00 | 72 | 1016.2 |
| 20260509075909 | 16 | 82 | 4.8 | 11.3 | 0.00 | 0.00 | 0.00 | 73 | 1016.2 |
| 20260509075409 | 15 | 102 | 3.2 | 8.0 | 0.00 | 0.00 | 0.00 | 74 | 1016.2 |
| 20260509074910 | 15 | 47 | 3.2 | 8.0 | 0.00 | 0.00 | 0.00 | 75 | 1016.2 |
| 20260509073909 | 15 | 103 | 1.6 | 4.8 | 0.00 | 0.00 | 0.00 | 77 | 1016.2 |
| 20260509072909 | 14 | 46 | 3.2 | 9.7 | 0.00 | 0.00 | 0.00 | 78 | 1016.2 |
| 20260509072409 | 14 | 52 | 3.2 | 4.8 | 0.00 | 0.00 | 0.00 | 78 | 1016.2 |
| 20260509071909 | 14 | 81 | 1.6 | 4.8 | 0.00 | 0.00 | 0.00 | 78 | 1016.2 |
| 20260509071409 | 14 | 83 | 3.2 | 11.3 | 0.00 | 0.00 | 0.00 | 78 | 1016.3 |
| 20260509070410 | 13 | 48 | 3.2 | 4.8 | 0.00 | 0.00 | 0.00 | 80 | 1016.4 |
| 20260509065910 | 13 | 34 | 3.2 | 8.0 | 0.00 | 0.00 | 0.00 | 80 | 1016.4 |
| 20260509065409 | 13 | 63 | 3.2 | 4.8 | 0.00 | 0.00 | 0.00 | 80 | 1016.4 |
| 20260509064910 | 13 | 96 | 1.6 | 11.3 | 0.00 | 0.00 | 0.00 | 82 | 1016.4 |
| 20260509064409 | 12 | 38 | 1.6 | 4.8 | 0.00 | 0.00 | 0.00 | 83 | 1016.4 |
| 20260509063909 | 12 | 53 | 3.2 | 8.0 | 0.00 | 0.00 | 0.00 | 83 | 1016.4 |
| 20260509061909 | 11 | 66 | 3.2 | 4.8 | 0.00 | 0.00 | 0.00 | 86 | 1016.4 |
| 20260509061410 | 10 | 40 | 1.6 | 8.0 | 0.00 | 0.00 | 0.00 | 86 | 1016.3 |
| 20260509060909 | 10 | 72 | 3.2 | 8.0 | 0.00 | 0.00 | 0.00 | 87 | 1016.3 |
| 20260509055909 | 9 | 85 | 1.6 | 8.0 | 0.00 | 0.00 | 0.00 | 87 | 1016.3 |
| 20260509055410 | 9 | 50 | 1.6 | 4.8 | 0.00 | 0.00 | 0.00 | 87 | 1016.3 |
| 20260509054910 | 8 | 45 | 3.2 | 4.8 | 0.00 | 0.00 | 0.00 | 87 | 1016.2 |
| 20260509053909 | 8 | 39 | 3.2 | 4.8 | 0.00 | 0.00 | 0.00 | 88 | 1016.2 |
| 20260509053409 | 8 | 24 | 1.6 | 3.2 | 0.00 | 0.00 | 0.00 | 88 | 1016.2 |
| 20260509052909 | 8 | 38 | 0.0 | 3.2 | 0.00 | 0.00 | 0.00 | 88 | 1016.1 |
| 20260509052409 | 8 | 45 | 1.6 | 4.8 | 0.00 | 0.00 | 0.00 | 88 | 1016.1 |
| 20260509051909 | 8 | 63 | 0.0 | 3.2 | 0.00 | 0.00 | 0.00 | 88 | 1016.1 |
| 20260509050909 | 7 | 47 | 1.6 | 3.2 | 0.00 | 0.00 | 0.00 | 87 | 1016.0 |
| 20260509050410 | 7 | 66 | 0.0 | 3.2 | 0.00 | 0.00 | 0.00 | 87 | 1016.0 |
| 20260509045909 | 7 | 37 | 1.6 | 3.2 | 0.00 | 0.00 | 0.00 | 87 | 1016.0 |
| 20260509043910 | 8 | 40 | 1.6 | 3.2 | 0.00 | 0.00 | 0.00 | 86 | 1015.8 |